| time (UTC) | temp F | wind direction | speed MPH | gust MPH | rain 1hr in | rain 24hr in | rain mn in | humidity % | barometer mb |
| 20260510190330 | 67 | 281 | 10.0 | 11.0 | 0.00 | 0.00 | 0.00 | 52 | 1017.6 |
| 20260510185820 | 68 | 251 | 1.0 | 8.0 | 0.00 | 0.00 | 0.00 | 54 | 1017.4 |
| 20260510185318 | 68 | 314 | 5.0 | 7.0 | 0.00 | 0.00 | 0.00 | 53 | 1017.5 |
| 20260510184815 | 71 | 306 | 10.0 | 11.0 | 0.00 | 0.00 | 0.00 | 51 | 1017.5 |
| 20260510184312 | 68 | 333 | 8.0 | 10.0 | 0.00 | 0.00 | 0.00 | 53 | 1017.5 |
| 20260510183807 | 69 | 286 | 3.0 | 10.0 | 0.00 | 0.00 | 0.00 | 51 | 1017.4 |
| 20260510183303 | 67 | 307 | 11.0 | 18.0 | 0.00 | 0.00 | 0.00 | 52 | 1017.7 |
| 20260510182758 | 68 | 301 | 8.0 | 16.0 | 0.00 | 0.00 | 0.00 | 51 | 1017.5 |
| 20260510182255 | 68 | 295 | 11.0 | 13.0 | 0.00 | 0.00 | 0.00 | 50 | 1017.5 |
| 20260510181752 | 68 | 289 | 7.0 | 9.0 | 0.00 | 0.00 | 0.00 | 55 | 1017.5 |
| 20260510181248 | 68 | 313 | 5.0 | 13.0 | 0.00 | 0.00 | 0.00 | 52 | 1017.7 |
| 20260510180744 | 69 | 347 | 7.0 | 13.0 | 0.00 | 0.00 | 0.00 | 52 | 1017.6 |
| 20260510180242 | 69 | 325 | 5.0 | 9.0 | 0.00 | 0.00 | 0.00 | 55 | 1017.8 |
| 20260510175738 | 68 | 310 | 5.0 | 13.0 | 0.00 | 0.00 | 0.00 | 52 | 1017.7 |
| 20260510175234 | 67 | 343 | 9.0 | 11.0 | 0.00 | 0.00 | 0.00 | 55 | 1017.8 |
| 20260510174731 | 67 | 293 | 10.0 | 18.0 | 0.00 | 0.00 | 0.00 | 55 | 1017.9 |
| 20260510174228 | 67 | 311 | 10.0 | 15.0 | 0.00 | 0.00 | 0.00 | 57 | 1017.8 |
| 20260510173725 | 67 | 327 | 10.0 | 14.0 | 0.00 | 0.00 | 0.00 | 57 | 1017.9 |
| 20260510173220 | 67 | 302 | 9.0 | 13.0 | 0.00 | 0.00 | 0.00 | 59 | 1017.9 |
| 20260510172715 | 67 | 288 | 6.0 | 14.0 | 0.00 | 0.00 | 0.00 | 59 | 1018.1 |
| 20260510172212 | 67 | 323 | 6.0 | 10.0 | 0.00 | 0.00 | 0.00 | 58 | 1017.9 |
| 20260510171710 | 67 | 284 | 6.0 | 9.0 | 0.00 | 0.00 | 0.00 | 61 | 1017.9 |
| 20260510171207 | 66 | 332 | 6.0 | 14.0 | 0.00 | 0.00 | 0.00 | 60 | 1018.0 |
| 20260510170703 | 66 | 308 | 13.0 | 17.0 | 0.00 | 0.00 | 0.00 | 57 | 1018.1 |
| 20260510170159 | 66 | 314 | 9.0 | 15.0 | 0.00 | 0.00 | 0.00 | 59 | 1018.0 |
| 20260510165655 | 66 | 287 | 6.0 | 10.0 | 0.00 | 0.00 | 0.00 | 62 | 1018.1 |
| 20260510165151 | 66 | 332 | 10.0 | 11.0 | 0.00 | 0.00 | 0.00 | 58 | 1018.4 |
| 20260510164649 | 66 | 327 | 8.0 | 16.0 | 0.00 | 0.00 | 0.00 | 59 | 1018.4 |
| 20260510164146 | 66 | 295 | 6.0 | 9.0 | 0.00 | 0.00 | 0.00 | 61 | 1018.4 |
| 20260510163641 | 66 | 264 | 6.0 | 14.0 | 0.00 | 0.00 | 0.00 | 64 | 1018.4 |
| 20260510163137 | 66 | 341 | 4.0 | 13.0 | 0.00 | 0.00 | 0.00 | 62 | 1018.0 |
| 20260510162631 | 65 | 313 | 10.0 | 15.0 | 0.00 | 0.00 | 0.00 | 63 | 1018.3 |
| 20260510162128 | 64 | 284 | 18.0 | 22.0 | 0.00 | 0.00 | 0.00 | 62 | 1018.1 |
| 20260510161624 | 64 | 283 | 12.0 | 19.0 | 0.00 | 0.00 | 0.00 | 64 | 1018.4 |
| 20260510161121 | 65 | 274 | 9.0 | 16.0 | 0.00 | 0.00 | 0.00 | 65 | 1018.3 |
| 20260510160618 | 64 | 278 | 5.0 | 11.0 | 0.00 | 0.00 | 0.00 | 66 | 1018.5 |
| 20260510160118 | 65 | 267 | 12.0 | 16.0 | 0.00 | 0.00 | 0.00 | 63 | 1018.3 |
| 20260510155615 | 65 | 256 | 7.0 | 18.0 | 0.00 | 0.00 | 0.00 | 66 | 1018.3 |
| 20260510155111 | 65 | 334 | 11.0 | 17.0 | 0.00 | 0.00 | 0.00 | 64 | 1018.3 |
| 20260510154606 | 65 | 308 | 9.0 | 14.0 | 0.00 | 0.00 | 0.00 | 63 | 1018.1 |
| 20260510154102 | 65 | 245 | 6.0 | 16.0 | 0.00 | 0.00 | 0.00 | 66 | 1018.0 |
| 20260510153557 | 65 | 260 | 3.0 | 13.0 | 0.00 | 0.00 | 0.00 | 66 | 1018.1 |
| 20260510153054 | 64 | 323 | 5.0 | 14.0 | 0.00 | 0.00 | 0.00 | 68 | 1017.9 |
| 20260510152551 | 64 | 331 | 9.0 | 14.0 | 0.00 | 0.00 | 0.00 | 65 | 1018.0 |
| 20260510152047 | 64 | 314 | 11.0 | 15.0 | 0.00 | 0.00 | 0.00 | 68 | 1018.1 |
| 20260510151543 | 64 | 277 | 4.0 | 11.0 | 0.00 | 0.00 | 0.00 | 65 | 1018.0 |
| 20260510151042 | 64 | 344 | 8.0 | 9.0 | 0.00 | 0.00 | 0.00 | 66 | 1018.0 |
| 20260510150536 | 64 | 281 | 6.0 | 10.0 | 0.00 | 0.00 | 0.00 | 66 | 1018.0 |
| 20260510150033 | 63 | 295 | 8.0 | 13.0 | 0.00 | 0.00 | 0.00 | 65 | 1018.3 |
| 20260510145530 | 63 | 304 | 7.0 | 11.0 | 0.00 | 0.00 | 0.00 | 66 | 1017.9 |
| 20260510145026 | 64 | 298 | 5.0 | 8.0 | 0.00 | 0.00 | 0.00 | 66 | 1017.9 |
| 20260510144522 | 63 | 345 | 10.0 | 11.0 | 0.00 | 0.00 | 0.00 | 65 | 1017.9 |
| 20260510144019 | 63 | 322 | 5.0 | 14.0 | 0.00 | 0.00 | 0.00 | 67 | 1017.9 |
| 20260510143514 | 64 | 271 | 6.0 | 15.0 | 0.00 | 0.00 | 0.00 | 65 | 1018.0 |
| 20260510143011 | 63 | 298 | 6.0 | 10.0 | 0.00 | 0.00 | 0.00 | 67 | 1017.8 |
| 20260510142507 | 63 | 294 | 8.0 | 15.0 | 0.00 | 0.00 | 0.00 | 65 | 1017.8 |
| 20260510142004 | 64 | 336 | 7.0 | 11.0 | 0.00 | 0.00 | 0.00 | 66 | 1017.6 |
| 20260510141500 | 63 | 352 | 7.0 | 10.0 | 0.00 | 0.00 | 0.00 | 65 | 1017.7 |
| 20260510140958 | 62 | 323 | 5.0 | 9.0 | 0.00 | 0.00 | 0.00 | 67 | 1017.8 |
| 20260510140454 | 62 | 285 | 5.0 | 10.0 | 0.00 | 0.00 | 0.00 | 68 | 1017.9 |
| 20260510135953 | 62 | 311 | 11.0 | 15.0 | 0.00 | 0.00 | 0.00 | 66 | 1017.7 |
| 20260510135449 | 61 | 333 | 8.0 | 14.0 | 0.00 | 0.00 | 0.00 | 69 | 1017.8 |
| 20260510134946 | 61 | 319 | 12.0 | 17.0 | 0.00 | 0.00 | 0.00 | 69 | 1017.5 |
| 20260510134443 | 61 | 315 | 9.0 | 19.0 | 0.00 | 0.00 | 0.00 | 69 | 1017.6 |
| 20260510133940 | 60 | 305 | 6.0 | 10.0 | 0.00 | 0.00 | 0.00 | 68 | 1017.7 |
| 20260510133436 | 60 | 293 | 13.0 | 17.0 | 0.00 | 0.00 | 0.00 | 69 | 1017.7 |
| 20260510132931 | 60 | 324 | 5.0 | 15.0 | 0.00 | 0.00 | 0.00 | 71 | 1017.6 |
| 20260510132430 | 60 | 242 | 7.0 | 13.0 | 0.00 | 0.00 | 0.00 | 70 | 1017.7 |
| 20260510131926 | 60 | 322 | 12.0 | 14.0 | 0.00 | 0.00 | 0.00 | 69 | 1017.8 |
| 20260510131424 | 60 | 265 | 6.0 | 10.0 | 0.00 | 0.00 | 0.00 | 70 | 1017.7 |
| 20260510130920 | 60 | 307 | 4.0 | 16.0 | 0.00 | 0.00 | 0.00 | 71 | 1017.9 |
| 20260510130417 | 60 | 281 | 5.0 | 14.0 | 0.00 | 0.00 | 0.00 | 72 | 1017.6 |
| 20260510125914 | 59 | 307 | 7.0 | 14.0 | 0.00 | 0.00 | 0.00 | 72 | 1017.9 |
| 20260510125405 | 59 | 298 | 7.0 | 16.0 | 0.00 | 0.00 | 0.00 | 73 | 1017.5 |
| 20260510124902 | 59 | 282 | 6.0 | 14.0 | 0.00 | 0.00 | 0.00 | 73 | 1017.6 |
| 20260510124358 | 59 | 327 | 8.0 | 11.0 | 0.00 | 0.00 | 0.00 | 74 | 1017.6 |
| 20260510123854 | 58 | 314 | 9.0 | 10.0 | 0.00 | 0.00 | 0.00 | 74 | 1017.4 |
| 20260510123350 | 58 | 290 | 6.0 | 11.0 | 0.00 | 0.00 | 0.00 | 74 | 1017.4 |
| 20260510122847 | 58 | 308 | 6.0 | 10.0 | 0.00 | 0.00 | 0.00 | 75 | 1017.5 |
| 20260510122342 | 58 | 289 | 5.0 | 10.0 | 0.00 | 0.00 | 0.00 | 76 | 1017.5 |
| 20260510121839 | 58 | 311 | 6.0 | 8.0 | 0.00 | 0.00 | 0.00 | 76 | 1017.4 |
| 20260510121337 | 58 | 300 | 6.0 | 9.0 | 0.00 | 0.00 | 0.00 | 77 | 1017.3 |
| 20260510120833 | 57 | 307 | 3.0 | 4.0 | 0.00 | 0.00 | 0.00 | 77 | 1017.3 |
| 20260510120331 | 57 | 328 | 7.0 | 8.0 | 0.00 | 0.00 | 0.00 | 78 | 1017.2 |
| 20260510115826 | 56 | 210 | 3.0 | 3.0 | 0.00 | 0.00 | 0.00 | 78 | 1017.0 |
| 20260510115324 | 56 | 304 | 2.0 | 7.0 | 0.00 | 0.00 | 0.00 | 79 | 1017.0 |
| 20260510114819 | 56 | 298 | 3.0 | 3.0 | 0.00 | 0.00 | 0.00 | 81 | 1017.2 |
| 20260510114317 | 55 | 309 | 2.0 | 2.0 | 0.00 | 0.00 | 0.00 | 81 | 1017.3 |
| 20260510113817 | 55 | 277 | 0.0 | 3.0 | 0.00 | 0.00 | 0.00 | 83 | 1016.9 |
| 20260510113314 | 55 | 264 | 1.0 | 3.0 | 0.00 | 0.00 | 0.00 | 82 | 1016.9 |
| 20260510112811 | 54 | 263 | 0.0 | 3.0 | 0.00 | 0.00 | 0.00 | 84 | 1016.9 |
| 20260510112308 | 54 | 3 | 1.0 | 3.0 | 0.00 | 0.00 | 0.00 | 84 | 1016.9 |
| 20260510111804 | 53 | 252 | 1.0 | 3.0 | 0.00 | 0.00 | 0.00 | 85 | 1017.0 |
| 20260510111301 | 53 | 306 | 2.0 | 3.0 | 0.00 | 0.00 | 0.00 | 86 | 1016.8 |
| 20260510110800 | 53 | 298 | 1.0 | 3.0 | 0.00 | 0.00 | 0.00 | 86 | 1016.7 |
| 20260510110259 | 52 | 291 | 1.0 | 3.0 | 0.00 | 0.00 | 0.00 | 87 | 1016.7 |
| 20260510105758 | 52 | 306 | 3.0 | 4.0 | 0.00 | 0.00 | 0.00 | 87 | 1016.5 |
| 20260510105253 | 52 | 316 | 3.0 | 6.0 | 0.00 | 0.00 | 0.00 | 88 | 1016.5 |
| 20260510104750 | 51 | 316 | 4.0 | 6.0 | 0.00 | 0.00 | 0.00 | 88 | 1016.5 |
| 20260510104248 | 51 | 292 | 5.0 | 6.0 | 0.00 | 0.00 | 0.00 | 89 | 1016.4 |
| 20260510103743 | 51 | 307 | 2.0 | 4.0 | 0.00 | 0.00 | 0.00 | 90 | 1016.4 |
| 20260510103240 | 50 | 301 | 3.0 | 4.0 | 0.00 | 0.00 | 0.00 | 90 | 1016.3 |
| 20260510102735 | 50 | 317 | 2.0 | 3.0 | 0.00 | 0.00 | 0.00 | 91 | 1016.2 |
| 20260510102230 | 50 | 292 | 3.0 | 4.0 | 0.00 | 0.00 | 0.00 | 92 | 1016.1 |
| 20260510101728 | 50 | 302 | 1.0 | 3.0 | 0.00 | 0.00 | 0.00 | 91 | 1015.9 |
| 20260510101227 | 50 | 322 | 2.0 | 3.0 | 0.00 | 0.00 | 0.00 | 91 | 1015.9 |
| 20260510100722 | 50 | 317 | 2.0 | 4.0 | 0.00 | 0.00 | 0.00 | 91 | 1015.7 |
| 20260510100221 | 50 | 303 | 2.0 | 3.0 | 0.00 | 0.00 | 0.00 | 91 | 1015.7 |
| 20260510095720 | 50 | 309 | 2.0 | 3.0 | 0.00 | 0.00 | 0.00 | 91 | 1015.8 |
| 20260510095216 | 50 | 309 | 4.0 | 6.0 | 0.00 | 0.00 | 0.00 | 91 | 1015.7 |
| 20260510094715 | 50 | 327 | 4.0 | 4.0 | 0.00 | 0.00 | 0.00 | 91 | 1015.8 |
| 20260510094211 | 50 | 298 | 4.0 | 6.0 | 0.00 | 0.00 | 0.00 | 91 | 1015.8 |
| 20260510093707 | 50 | 274 | 3.0 | 6.0 | 0.00 | 0.00 | 0.00 | 91 | 1015.9 |
| 20260510093204 | 50 | 298 | 3.0 | 4.0 | 0.00 | 0.00 | 0.00 | 92 | 1015.7 |
| 20260510092700 | 50 | 285 | 2.0 | 6.0 | 0.00 | 0.00 | 0.00 | 92 | 1015.7 |
| 20260510092156 | 50 | 292 | 2.0 | 2.0 | 0.00 | 0.00 | 0.00 | 92 | 1015.5 |
| 20260510091652 | 50 | 280 | 1.0 | 2.0 | 0.00 | 0.00 | 0.00 | 91 | 1015.6 |
| 20260510091148 | 50 | 289 | 1.0 | 2.0 | 0.00 | 0.00 | 0.00 | 91 | 1015.4 |
| 20260510090645 | 50 | 258 | 2.0 | 3.0 | 0.00 | 0.00 | 0.00 | 91 | 1015.4 |
| 20260510090142 | 50 | 291 | 2.0 | 3.0 | 0.00 | 0.00 | 0.00 | 91 | 1015.3 |
| 20260510085637 | 50 | 282 | 1.0 | 3.0 | 0.00 | 0.00 | 0.00 | 91 | 1015.3 |
| 20260510085132 | 51 | 289 | 2.0 | 3.0 | 0.00 | 0.00 | 0.00 | 90 | 1015.3 |
| 20260510084629 | 51 | 322 | 3.0 | 4.0 | 0.00 | 0.00 | 0.00 | 90 | 1015.2 |
| 20260510084126 | 51 | 311 | 2.0 | 6.0 | 0.00 | 0.00 | 0.00 | 89 | 1015.2 |
| 20260510083622 | 51 | 314 | 3.0 | 4.0 | 0.00 | 0.00 | 0.00 | 90 | 1015.2 |
| 20260510083119 | 51 | 308 | 4.0 | 6.0 | 0.00 | 0.00 | 0.00 | 90 | 1015.0 |
| 20260510082615 | 51 | 321 | 4.0 | 6.0 | 0.00 | 0.00 | 0.00 | 90 | 1015.1 |
| 20260510082111 | 51 | 304 | 2.0 | 4.0 | 0.00 | 0.00 | 0.00 | 90 | 1015.0 |
| 20260510081606 | 51 | 306 | 4.0 | 4.0 | 0.00 | 0.00 | 0.00 | 91 | 1015.2 |
| 20260510081102 | 51 | 288 | 4.0 | 6.0 | 0.00 | 0.00 | 0.00 | 90 | 1015.0 |
| 20260510080601 | 51 | 319 | 4.0 | 9.0 | 0.00 | 0.00 | 0.00 | 90 | 1014.8 |
| 20260510080058 | 51 | 320 | 4.0 | 8.0 | 0.00 | 0.00 | 0.00 | 90 | 1014.8 |
| 20260510075555 | 51 | 338 | 4.0 | 7.0 | 0.00 | 0.00 | 0.00 | 90 | 1014.7 |
| 20260510075052 | 51 | 297 | 3.0 | 6.0 | 0.00 | 0.00 | 0.00 | 90 | 1014.6 |
| 20260510074550 | 51 | 319 | 5.0 | 8.0 | 0.00 | 0.00 | 0.00 | 90 | 1014.7 |
| 20260510074045 | 51 | 301 | 5.0 | 6.0 | 0.00 | 0.00 | 0.00 | 90 | 1014.7 |
| 20260510073541 | 51 | 306 | 5.0 | 7.0 | 0.00 | 0.00 | 0.00 | 90 | 1014.5 |
| 20260510073039 | 52 | 303 | 2.0 | 6.0 | 0.00 | 0.00 | 0.00 | 90 | 1014.7 |
| 20260510072535 | 52 | 310 | 5.0 | 7.0 | 0.00 | 0.00 | 0.00 | 90 | 1014.6 |
| 20260510072031 | 52 | 312 | 4.0 | 8.0 | 0.00 | 0.00 | 0.00 | 90 | 1014.6 |
| 20260510071527 | 52 | 309 | 3.0 | 10.0 | 0.00 | 0.00 | 0.00 | 90 | 1014.7 |
| 20260510071026 | 52 | 305 | 4.0 | 7.0 | 0.00 | 0.00 | 0.00 | 90 | 1014.7 |
| 20260510070522 | 52 | 304 | 7.0 | 8.0 | 0.00 | 0.00 | 0.00 | 90 | 1014.7 |
| 20260510070019 | 52 | 295 | 4.0 | 7.0 | 0.00 | 0.00 | 0.00 | 90 | 1015.1 |
| 20260510065515 | 52 | 332 | 5.0 | 8.0 | 0.00 | 0.00 | 0.00 | 90 | 1014.7 |
| 20260510065011 | 52 | 337 | 8.0 | 9.0 | 0.00 | 0.00 | 0.00 | 90 | 1014.6 |
| 20260510064508 | 52 | 338 | 4.0 | 8.0 | 0.00 | 0.00 | 0.00 | 90 | 1014.7 |
| 20260510064005 | 52 | 335 | 7.0 | 10.0 | 0.00 | 0.00 | 0.00 | 90 | 1014.5 |
| 20260510063501 | 52 | 303 | 5.0 | 8.0 | 0.00 | 0.00 | 0.00 | 90 | 1014.8 |
| 20260510062959 | 52 | 317 | 3.0 | 8.0 | 0.00 | 0.00 | 0.00 | 90 | 1014.7 |
| 20260510062454 | 52 | 311 | 5.0 | 8.0 | 0.00 | 0.00 | 0.00 | 90 | 1014.7 |
| 20260510061949 | 52 | 272 | 6.0 | 9.0 | 0.00 | 0.00 | 0.00 | 90 | 1014.8 |
| 20260510061447 | 52 | 289 | 4.0 | 7.0 | 0.00 | 0.00 | 0.00 | 89 | 1014.8 |
| 20260510060943 | 53 | 289 | 4.0 | 9.0 | 0.00 | 0.00 | 0.00 | 89 | 1014.6 |
| 20260510060440 | 52 | 306 | 6.0 | 8.0 | 0.00 | 0.00 | 0.00 | 90 | 1014.7 |
| 20260510055936 | 52 | 323 | 5.0 | 7.0 | 0.00 | 0.00 | 0.00 | 90 | 1014.8 |
| 20260510055432 | 52 | 306 | 5.0 | 7.0 | 0.00 | 0.00 | 0.00 | 90 | 1014.7 |
| 20260510054931 | 52 | 300 | 4.0 | 10.0 | 0.00 | 0.00 | 0.00 | 90 | 1014.8 |
| 20260510054431 | 53 | 297 | 3.0 | 8.0 | 0.00 | 0.00 | 0.00 | 89 | 1014.8 |
| 20260510053926 | 52 | 282 | 4.0 | 6.0 | 0.00 | 0.00 | 0.00 | 89 | 1014.8 |
| 20260510053422 | 53 | 290 | 5.0 | 8.0 | 0.00 | 0.00 | 0.00 | 90 | 1014.7 |
| 20260510052918 | 53 | 304 | 3.0 | 6.0 | 0.00 | 0.00 | 0.00 | 89 | 1014.8 |
| 20260510052414 | 53 | 323 | 3.0 | 6.0 | 0.00 | 0.00 | 0.00 | 89 | 1015.1 |
| 20260510051910 | 53 | 299 | 5.0 | 8.0 | 0.00 | 0.00 | 0.00 | 89 | 1014.8 |
| 20260510051407 | 53 | 307 | 4.0 | 6.0 | 0.00 | 0.00 | 0.00 | 89 | 1014.8 |
| 20260510050904 | 53 | 327 | 5.0 | 6.0 | 0.00 | 0.00 | 0.00 | 89 | 1015.0 |
| 20260510050400 | 53 | 294 | 4.0 | 7.0 | 0.00 | 0.00 | 0.00 | 88 | 1014.8 |
| 20260510045857 | 53 | 314 | 3.0 | 4.0 | 0.00 | 0.00 | 0.00 | 89 | 1014.7 |
| 20260510045354 | 53 | 295 | 5.0 | 7.0 | 0.00 | 0.00 | 0.00 | 88 | 1015.0 |
| 20260510044851 | 53 | 319 | 5.0 | 7.0 | 0.00 | 0.00 | 0.00 | 88 | 1014.7 |
| 20260510044348 | 53 | 282 | 3.0 | 6.0 | 0.00 | 0.00 | 0.00 | 88 | 1014.7 |
| 20260510043845 | 53 | 310 | 2.0 | 7.0 | 0.00 | 0.00 | 0.00 | 87 | 1014.7 |
| 20260510043340 | 53 | 308 | 3.0 | 6.0 | 0.00 | 0.00 | 0.00 | 87 | 1014.6 |
| 20260510042839 | 53 | 297 | 5.0 | 7.0 | 0.00 | 0.00 | 0.00 | 87 | 1015.0 |
| 20260510042334 | 53 | 301 | 7.0 | 9.0 | 0.00 | 0.00 | 0.00 | 87 | 1014.7 |
| 20260510041831 | 53 | 311 | 2.0 | 6.0 | 0.00 | 0.00 | 0.00 | 86 | 1014.7 |
| 20260510041328 | 53 | 318 | 4.0 | 7.0 | 0.00 | 0.00 | 0.00 | 86 | 1014.8 |
| 20260510040825 | 53 | 307 | 3.0 | 7.0 | 0.00 | 0.00 | 0.00 | 86 | 1014.8 |
| 20260510040322 | 53 | 312 | 2.0 | 7.0 | 0.00 | 0.00 | 0.00 | 85 | 1014.8 |
| 20260510035817 | 53 | 292 | 4.0 | 7.0 | 0.00 | 0.00 | 0.00 | 86 | 1014.7 |
| 20260510035314 | 53 | 334 | 4.0 | 6.0 | 0.00 | 0.00 | 0.00 | 86 | 1014.7 |
| 20260510034809 | 53 | 312 | 4.0 | 7.0 | 0.00 | 0.00 | 0.00 | 85 | 1014.6 |
| 20260510034307 | 53 | 303 | 3.0 | 7.0 | 0.00 | 0.00 | 0.00 | 85 | 1015.0 |
| 20260510033803 | 53 | 306 | 3.0 | 6.0 | 0.00 | 0.00 | 0.00 | 85 | 1014.6 |
| 20260510033301 | 53 | 298 | 3.0 | 6.0 | 0.00 | 0.00 | 0.00 | 85 | 1014.6 |
| 20260510032757 | 53 | 294 | 4.0 | 7.0 | 0.00 | 0.00 | 0.00 | 84 | 1014.8 |
| 20260510032253 | 53 | 305 | 3.0 | 4.0 | 0.00 | 0.00 | 0.00 | 84 | 1014.6 |
| 20260510031749 | 53 | 310 | 4.0 | 8.0 | 0.00 | 0.00 | 0.00 | 84 | 1014.6 |
| 20260510031245 | 53 | 302 | 4.0 | 6.0 | 0.00 | 0.00 | 0.00 | 84 | 1014.6 |
| 20260510030739 | 53 | 292 | 3.0 | 7.0 | 0.00 | 0.00 | 0.00 | 83 | 1014.6 |
| 20260510030236 | 53 | 289 | 2.0 | 6.0 | 0.00 | 0.00 | 0.00 | 83 | 1014.7 |
| 20260510025733 | 53 | 305 | 6.0 | 7.0 | 0.00 | 0.00 | 0.00 | 83 | 1014.7 |
| 20260510025231 | 53 | 322 | 4.0 | 9.0 | 0.00 | 0.00 | 0.00 | 82 | 1014.7 |
| 20260510024728 | 54 | 294 | 4.0 | 6.0 | 0.00 | 0.00 | 0.00 | 82 | 1014.8 |
| 20260510024225 | 54 | 297 | 3.0 | 9.0 | 0.00 | 0.00 | 0.00 | 82 | 1014.8 |
| 20260510023720 | 53 | 330 | 4.0 | 6.0 | 0.00 | 0.00 | 0.00 | 81 | 1014.8 |
| 20260510023217 | 53 | 307 | 4.0 | 6.0 | 0.00 | 0.00 | 0.00 | 81 | 1014.6 |
| 20260510022714 | 54 | 303 | 3.0 | 6.0 | 0.00 | 0.00 | 0.00 | 80 | 1014.6 |
| 20260510022208 | 53 | 297 | 4.0 | 7.0 | 0.00 | 0.00 | 0.00 | 80 | 1014.5 |
| 20260510021703 | 54 | 303 | 4.0 | 6.0 | 0.00 | 0.00 | 0.00 | 81 | 1014.4 |
| 20260510021201 | 53 | 266 | 3.0 | 6.0 | 0.00 | 0.00 | 0.00 | 81 | 1014.4 |
| 20260510020655 | 53 | 297 | 2.0 | 6.0 | 0.00 | 0.00 | 0.00 | 81 | 1014.4 |
| 20260510020150 | 53 | 307 | 2.0 | 3.0 | 0.00 | 0.00 | 0.00 | 81 | 1014.2 |
| 20260510015647 | 53 | 305 | 2.0 | 4.0 | 0.00 | 0.00 | 0.00 | 80 | 1014.1 |
| 20260510015144 | 53 | 304 | 3.0 | 6.0 | 0.00 | 0.00 | 0.00 | 80 | 1014.1 |
| 20260510014639 | 53 | 306 | 2.0 | 4.0 | 0.00 | 0.00 | 0.00 | 80 | 1014.0 |
| 20260510014137 | 53 | 296 | 3.0 | 4.0 | 0.00 | 0.00 | 0.00 | 80 | 1013.7 |
| 20260510013636 | 53 | 306 | 2.0 | 3.0 | 0.00 | 0.00 | 0.00 | 80 | 1013.7 |
| 20260510013132 | 53 | 308 | 3.0 | 4.0 | 0.00 | 0.00 | 0.00 | 80 | 1013.5 |
| 20260510012632 | 53 | 315 | 3.0 | 4.0 | 0.00 | 0.00 | 0.00 | 79 | 1013.5 |
| 20260510012128 | 53 | 317 | 3.0 | 3.0 | 0.00 | 0.00 | 0.00 | 79 | 1013.5 |
| 20260510011623 | 53 | 318 | 3.0 | 6.0 | 0.00 | 0.00 | 0.00 | 80 | 1013.5 |
| 20260510011119 | 53 | 298 | 2.0 | 3.0 | 0.00 | 0.00 | 0.00 | 79 | 1013.3 |
| 20260510010615 | 53 | 333 | 2.0 | 2.0 | 0.00 | 0.00 | 0.00 | 78 | 1013.3 |
| 20260510010113 | 54 | 353 | 2.0 | 3.0 | 0.00 | 0.00 | 0.00 | 78 | 1013.2 |
| 20260510005608 | 54 | 314 | 2.0 | 2.0 | 0.00 | 0.00 | 0.00 | 78 | 1013.4 |
| 20260510005106 | 54 | 310 | 2.0 | 3.0 | 0.00 | 0.00 | 0.00 | 77 | 1013.2 |
| 20260510004604 | 54 | 349 | 2.0 | 3.0 | 0.00 | 0.00 | 0.00 | 76 | 1013.1 |
| 20260510004102 | 54 | 0 | 1.0 | 2.0 | 0.00 | 0.00 | 0.00 | 76 | 1013.1 |
| 20260510003558 | 55 | 345 | 2.0 | 2.0 | 0.00 | 0.00 | 0.00 | 75 | 1013.1 |
| 20260510003054 | 55 | 312 | 1.0 | 2.0 | 0.00 | 0.00 | 0.00 | 75 | 1013.2 |
| 20260510002554 | 55 | 320 | 2.0 | 2.0 | 0.00 | 0.00 | 0.00 | 74 | 1013.1 |
| 20260510002051 | 56 | 309 | 2.0 | 2.0 | 0.00 | 0.00 | 0.00 | 73 | 1013.2 |
| 20260510001548 | 56 | 324 | 2.0 | 3.0 | 0.00 | 0.00 | 0.00 | 72 | 1012.9 |
| 20260510001047 | 56 | 306 | 2.0 | 3.0 | 0.00 | 0.00 | 0.00 | 71 | 1013.0 |
| 20260510000542 | 57 | 301 | 2.0 | 6.0 | 0.00 | 0.00 | 0.00 | 70 | 1013.0 |
| 20260510000039 | 58 | 340 | 3.0 | 4.0 | 0.00 | 0.00 | 0.00 | 69 | 1012.7 |
| 20260509235535 | 58 | 303 | 4.0 | 6.0 | 0.00 | 0.00 | 0.00 | 69 | 1012.5 |
| 20260509235032 | 58 | 299 | 2.0 | 4.0 | 0.00 | 0.00 | 0.00 | 68 | 1012.4 |
| 20260509234528 | 59 | 286 | 2.0 | 3.0 | 0.00 | 0.00 | 0.00 | 67 | 1012.7 |
| 20260509234026 | 59 | 317 | 3.0 | 3.0 | 0.00 | 0.00 | 0.00 | 67 | 1012.5 |
| 20260509233523 | 59 | 279 | 5.0 | 7.0 | 0.00 | 0.00 | 0.00 | 66 | 1012.5 |
| 20260509233021 | 59 | 339 | 4.0 | 8.0 | 0.00 | 0.00 | 0.00 | 65 | 1012.5 |
| 20260509232517 | 60 | 302 | 4.0 | 8.0 | 0.00 | 0.00 | 0.00 | 65 | 1012.5 |
| 20260509232014 | 60 | 299 | 5.0 | 8.0 | 0.00 | 0.00 | 0.00 | 65 | 1012.2 |
| 20260509231510 | 60 | 296 | 8.0 | 9.0 | 0.00 | 0.00 | 0.00 | 64 | 1012.3 |
| 20260509231008 | 61 | 232 | 5.0 | 8.0 | 0.00 | 0.00 | 0.00 | 63 | 1012.2 |
| 20260509230505 | 61 | 306 | 8.0 | 9.0 | 0.00 | 0.00 | 0.00 | 63 | 1012.4 |
| 20260509230001 | 60 | 275 | 3.0 | 7.0 | 0.00 | 0.00 | 0.00 | 64 | 1012.2 |
| 20260509225457 | 61 | 297 | 4.0 | 13.0 | 0.00 | 0.00 | 0.00 | 63 | 1012.2 |
| 20260509224953 | 61 | 335 | 6.0 | 9.0 | 0.00 | 0.00 | 0.00 | 63 | 1012.2 |
| 20260509224449 | 61 | 305 | 5.0 | 7.0 | 0.00 | 0.00 | 0.00 | 65 | 1012.4 |
| 20260509223946 | 59 | 298 | 2.0 | 6.0 | 0.00 | 0.00 | 0.00 | 67 | 1012.5 |
| 20260509223442 | 59 | 274 | 5.0 | 7.0 | 0.00 | 0.00 | 0.00 | 67 | 1012.5 |
| 20260509222940 | 60 | 322 | 6.0 | 11.0 | 0.00 | 0.00 | 0.00 | 65 | 1012.4 |
| 20260509222435 | 60 | 320 | 8.0 | 10.0 | 0.00 | 0.00 | 0.00 | 66 | 1012.4 |
| 20260509221931 | 60 | 293 | 6.0 | 11.0 | 0.00 | 0.00 | 0.00 | 64 | 1012.5 |
| 20260509221428 | 59 | 328 | 7.0 | 9.0 | 0.00 | 0.00 | 0.00 | 65 | 1012.4 |
| 20260509220924 | 59 | 310 | 3.0 | 6.0 | 0.00 | 0.00 | 0.00 | 67 | 1012.5 |
| 20260509220420 | 60 | 302 | 6.0 | 10.0 | 0.00 | 0.00 | 0.00 | 65 | 1012.4 |
| 20260509215916 | 60 | 306 | 6.0 | 7.0 | 0.00 | 0.00 | 0.00 | 65 | 1012.5 |
| 20260509215412 | 60 | 310 | 5.0 | 7.0 | 0.00 | 0.00 | 0.00 | 65 | 1012.5 |
| 20260509214910 | 60 | 8 | 4.0 | 4.0 | 0.00 | 0.00 | 0.00 | 65 | 1012.7 |
| 20260509214406 | 60 | 336 | 5.0 | 11.0 | 0.00 | 0.00 | 0.00 | 64 | 1012.6 |
| 20260509213904 | 60 | 293 | 5.0 | 9.0 | 0.00 | 0.00 | 0.00 | 65 | 1012.5 |
| 20260509213359 | 60 | 316 | 7.0 | 10.0 | 0.00 | 0.00 | 0.00 | 63 | 1012.6 |
| 20260509212857 | 60 | 304 | 7.0 | 11.0 | 0.00 | 0.00 | 0.00 | 64 | 1012.5 |
| 20260509212354 | 60 | 256 | 6.0 | 14.0 | 0.00 | 0.00 | 0.00 | 62 | 1012.6 |
| 20260509211850 | 60 | 332 | 7.0 | 9.0 | 0.00 | 0.00 | 0.00 | 62 | 1012.4 |
| 20260509211346 | 60 | 332 | 6.0 | 11.0 | 0.00 | 0.00 | 0.00 | 62 | 1012.4 |
| 20260509210842 | 61 | 297 | 5.0 | 7.0 | 0.00 | 0.00 | 0.00 | 62 | 1012.4 |
| 20260509210340 | 60 | 343 | 4.0 | 8.0 | 0.00 | 0.00 | 0.00 | 62 | 1012.2 |
| 20260509205840 | 60 | 289 | 6.0 | 11.0 | 0.00 | 0.00 | 0.00 | 62 | 1012.3 |
| 20260509205334 | 60 | 303 | 5.0 | 8.0 | 0.00 | 0.00 | 0.00 | 62 | 1012.3 |
| 20260509204831 | 60 | 3 | 5.0 | 6.0 | 0.00 | 0.00 | 0.00 | 63 | 1012.3 |
| 20260509204328 | 61 | 334 | 7.0 | 9.0 | 0.00 | 0.00 | 0.00 | 61 | 1012.0 |
| 20260509203824 | 60 | 300 | 6.0 | 9.0 | 0.00 | 0.00 | 0.00 | 61 | 1012.0 |
| 20260509203321 | 60 | 258 | 5.0 | 8.0 | 0.00 | 0.00 | 0.00 | 64 | 1012.1 |
| 20260509202817 | 60 | 314 | 6.0 | 8.0 | 0.00 | 0.00 | 0.00 | 63 | 1011.9 |
| 20260509202314 | 60 | 292 | 6.0 | 8.0 | 0.00 | 0.00 | 0.00 | 61 | 1011.9 |
| 20260509201813 | 60 | 303 | 8.0 | 17.0 | 0.00 | 0.00 | 0.00 | 61 | 1011.9 |
| 20260509201310 | 60 | 305 | 4.0 | 10.0 | 0.00 | 0.00 | 0.00 | 63 | 1011.8 |
| 20260509200806 | 60 | 288 | 9.0 | 11.0 | 0.00 | 0.00 | 0.00 | 60 | 1011.8 |
| 20260509200302 | 61 | 277 | 6.0 | 13.0 | 0.00 | 0.00 | 0.00 | 61 | 1011.8 |
| 20260509195759 | 60 | 284 | 6.0 | 11.0 | 0.00 | 0.00 | 0.00 | 58 | 1011.6 |
| 20260509195254 | 61 | 316 | 7.0 | 11.0 | 0.00 | 0.00 | 0.00 | 60 | 1011.6 |
| 20260509194753 | 61 | 297 | 3.0 | 4.0 | 0.00 | 0.00 | 0.00 | 59 | 1011.8 |
| 20260509194250 | 60 | 290 | 5.0 | 10.0 | 0.00 | 0.00 | 0.00 | 60 | 1011.8 |
| 20260509193747 | 60 | 36 | 10.0 | 13.0 | 0.00 | 0.00 | 0.00 | 59 | 1011.8 |
| 20260509193247 | 60 | 280 | 7.0 | 11.0 | 0.00 | 0.00 | 0.00 | 61 | 1011.8 |
| 20260509192743 | 60 | 291 | 9.0 | 13.0 | 0.00 | 0.00 | 0.00 | 58 | 1011.9 |
| 20260509192243 | 60 | 299 | 10.0 | 14.0 | 0.00 | 0.00 | 0.00 | 58 | 1011.8 |
| 20260509191739 | 60 | 276 | 4.0 | 8.0 | 0.00 | 0.00 | 0.00 | 62 | 1011.8 |
| 20260509191236 | 61 | 279 | 8.0 | 11.0 | 0.00 | 0.00 | 0.00 | 59 | 1011.8 |
| 20260509190732 | 60 | 325 | 8.0 | 13.0 | 0.00 | 0.00 | 0.00 | 59 | 1011.5 |